Total_Precipitation_Accumulation
0.35 0.40 0.35 0.24 0.18 0.14 0.10 0.11 0.09 0.05 0.04 0.08 0.08 0.05 0.01 0.01 0.02 0.02 0.01 0.01 0.01 0.01 0.00 0.01 0.04 0.04 0.05 0.07 0.08 0.10 0.11 0.10 0.11 0.10 0.09 0.07 0.05 0.03 0.02 0.02 0.01 0.01 0.01 0.01
0.48 0.37 0.19 0.13 0.11 0.12 0.15 0.16 0.11 0.06 0.05 0.10 0.09 0.04 0.01 0.01 0.01 0.01 0.01 0.01 0.01 0.01 0.01 0.01 0.02 0.04 0.05 0.06 0.07 0.07 0.09 0.09 0.10 0.08 0.06 0.05 0.04 0.03 0.02 0.01 0.01 0.01 0.01 0.01
0.40 0.24 0.11 0.17 0.19 0.17 0.16 0.14 0.10 0.08 0.07 0.10 0.11 0.07 0.01 0.00 0.00 0.01 0.01 0.01 0.01 0.01 0.01 0.01 0.01 0.02 0.04 0.04 0.05 0.06 0.07 0.08 0.08 0.09 0.09 0.08 0.07 0.06 0.04 0.02 0.01 0.01 0.01 0.01
0.29 0.16 0.15 0.21 0.24 0.19 0.16 0.07 0.07 0.11 0.18 0.18 0.13 0.13 0.02 0.00 0.00 0.00 0.00 0.00 0.01 0.01 0.01 0.01 0.01 0.01 0.03 0.03 0.03 0.05 0.07 0.08 0.08 0.09 0.09 0.08 0.06 0.05 0.03 0.02 0.01 0.01 0.01 0.01
0.34 0.19 0.20 0.24 0.20 0.18 0.13 0.07 0.09 0.14 0.23 0.27 0.18 0.18 0.04 0.00 0.00 0.00 0.00 0.00 0.00 0.00 0.01 0.01 0.00 0.00 0.02 0.03 0.04 0.04 0.06 0.08 0.09 0.09 0.07 0.07 0.06 0.04 0.03 0.02 0.02 0.02 0.01 0.01
0.29 0.18 0.23 0.22 0.16 0.19 0.18 0.19 0.23 0.27 0.42 0.57 0.20 0.15 0.06 0.00 0.00 0.00 0.00 0.00 0.00 0.00 0.00 0.00 0.00 0.00 0.01 0.03 0.04 0.05 0.06 0.07 0.10 0.11 0.08 0.06 0.06 0.05 0.03 0.03 0.02 0.02 0.01 0.01
0.43 0.25 0.21 0.21 0.28 0.33 0.39 0.56 0.88 0.90 0.87 0.51 0.08 0.10 0.06 0.00 0.00 0.00 0.00 0.00 0.00 0.00 0.00 0.00 0.00 0.00 0.00 0.02 0.03 0.05 0.06 0.06 0.08 0.10 0.10 0.07 0.06 0.05 0.05 0.03 0.03 0.02 0.02 0.02
0.49 0.33 0.21 0.21 0.28 0.39 0.46 0.59 0.76 0.66 0.38 0.12 0.03 0.05 0.02 0.01 0.01 0.01 0.00 0.00 0.00 0.00 0.00 0.00 0.00 0.00 0.00 0.01 0.02 0.04 0.06 0.05 0.06 0.08 0.09 0.08 0.07 0.06 0.06 0.05 0.04 0.04 0.04 0.03
0.48 0.30 0.15 0.15 0.16 0.22 0.35 0.45 0.40 0.46 0.29 0.14 0.07 0.02 0.01 0.02 0.02 0.01 0.01 0.00 0.00 0.00 0.00 0.00 0.00 0.00 0.00 0.00 0.01 0.01 0.03 0.06 0.06 0.06 0.08 0.10 0.08 0.06 0.06 0.06 0.06 0.04 0.04 0.03
0.48 0.39 0.18 0.17 0.22 0.25 0.29 0.33 0.48 0.74 0.61 0.26 0.09 0.02 0.03 0.04 0.03 0.01 0.01 0.01 0.00 0.00 0.00 0.00 0.00 0.00 0.00 0.00 0.01 0.01 0.01 0.03 0.05 0.07 0.08 0.10 0.10 0.07 0.06 0.07 0.08 0.06 0.04 0.03
0.45 0.51 0.31 0.28 0.36 0.34 0.33 0.43 0.60 0.71 0.56 0.32 0.14 0.05 0.06 0.05 0.03 0.03 0.03 0.01 0.01 0.00 0.00 0.00 0.00 0.00 0.00 0.01 0.01 0.01 0.02 0.03 0.04 0.06 0.08 0.09 0.10 0.09 0.07 0.07 0.07 0.07 0.05 0.03
0.40 0.57 0.43 0.28 0.27 0.25 0.32 0.37 0.45 0.62 0.51 0.28 0.17 0.07 0.04 0.04 0.03 0.03 0.04 0.02 0.01 0.01 0.00 0.00 0.00 0.00 0.00 0.01 0.01 0.01 0.02 0.03 0.03 0.04 0.07 0.09 0.11 0.12 0.08 0.06 0.06 0.06 0.06 0.05
0.62 0.82 0.69 0.47 0.41 0.40 0.49 0.44 0.41 0.39 0.32 0.23 0.16 0.06 0.04 0.04 0.03 0.03 0.03 0.03 0.02 0.01 0.00 0.00 0.00 0.00 0.00 0.00 0.01 0.01 0.01 0.02 0.03 0.05 0.06 0.08 0.12 0.14 0.11 0.06 0.04 0.06 0.07 0.07
0.75 0.85 0.63 0.57 0.45 0.40 0.41 0.36 0.36 0.44 0.43 0.23 0.08 0.05 0.05 0.05 0.04 0.04 0.04 0.04 0.03 0.02 0.01 0.00 0.00 0.00 0.00 0.00 0.00 0.01 0.01 0.02 0.02 0.04 0.05 0.05 0.07 0.10 0.10 0.07 0.05 0.05 0.05 0.06
0.70 0.66 0.32 0.20 0.17 0.18 0.19 0.18 0.22 0.29 0.28 0.18 0.05 0.04 0.06 0.07 0.06 0.05 0.05 0.05 0.04 0.03 0.02 0.01 0.01 0.00 0.00 0.01 0.01 0.01 0.01 0.01 0.02 0.03 0.04 0.04 0.04 0.05 0.08 0.08 0.06 0.05 0.06 0.06
0.68 0.60 0.27 0.15 0.11 0.15 0.15 0.09 0.10 0.11 0.10 0.08 0.04 0.03 0.03 0.04 0.05 0.05 0.05 0.06 0.05 0.04 0.03 0.02 0.01 0.01 0.00 0.00 0.01 0.01 0.01 0.01 0.01 0.02 0.02 0.02 0.04 0.05 0.05 0.07 0.07 0.05 0.05 0.07
0.61 0.59 0.41 0.23 0.12 0.25 0.26 0.11 0.08 0.07 0.06 0.06 0.08 0.07 0.04 0.02 0.03 0.05 0.07 0.07 0.07 0.05 0.04 0.03 0.02 0.01 0.01 0.00 0.00 0.00 0.01 0.01 0.01 0.01 0.02 0.02 0.03 0.04 0.04 0.04 0.06 0.07 0.06 0.06
0.41 0.50 0.57 0.35 0.32 0.50 0.25 0.09 0.07 0.08 0.09 0.09 0.10 0.09 0.06 0.03 0.03 0.05 0.06 0.06 0.06 0.06 0.05 0.03 0.02 0.01 0.01 0.01 0.00 0.00 0.01 0.01 0.01 0.01 0.01 0.02 0.02 0.03 0.03 0.04 0.05 0.05 0.06 0.06
0.21 0.40 0.67 0.56 0.45 0.28 0.11 0.08 0.11 0.12 0.13 0.11 0.10 0.08 0.05 0.03 0.03 0.05 0.05 0.05 0.04 0.04 0.04 0.03 0.02 0.02 0.01 0.01 0.00 0.00 0.00 0.01 0.01 0.01 0.01 0.01 0.02 0.02 0.03 0.03 0.03 0.04 0.05 0.05
0.22 0.35 0.67 0.61 0.46 0.22 0.12 0.08 0.08 0.11 0.17 0.10 0.09 0.09 0.07 0.06 0.08 0.07 0.06 0.04 0.03 0.03 0.03 0.03 0.02 0.02 0.01 0.01 0.01 0.00 0.00 0.01 0.01 0.01 0.01 0.01 0.02 0.02 0.02 0.02 0.03 0.04 0.04 0.04
0.46 0.60 0.65 0.49 0.34 0.15 0.10 0.08 0.08 0.18 0.20 0.10 0.08 0.09 0.09 0.09 0.09 0.06 0.03 0.02 0.03 0.03 0.03 0.03 0.02 0.02 0.02 0.01 0.01 0.00 0.00 0.00 0.01 0.01 0.01 0.02 0.02 0.02 0.02 0.03 0.03 0.04 0.04 0.04
0.45 0.55 0.47 0.37 0.34 0.19 0.12 0.11 0.19 0.20 0.11 0.08 0.07 0.07 0.07 0.06 0.05 0.03 0.02 0.02 0.03 0.03 0.03 0.03 0.02 0.02 0.02 0.01 0.01 0.01 0.01 0.01 0.01 0.01 0.01 0.02 0.02 0.02 0.03 0.04 0.04 0.04 0.05 0.05
0.30 0.37 0.38 0.29 0.20 0.14 0.14 0.15 0.15 0.12 0.09 0.06 0.06 0.06 0.06 0.05 0.04 0.03 0.03 0.02 0.03 0.04 0.03 0.03 0.03 0.03 0.02 0.02 0.02 0.02 0.02 0.01 0.02 0.01 0.01 0.02 0.02 0.02 0.03 0.04 0.05 0.05 0.06 0.07
0.19 0.19 0.23 0.19 0.11 0.10 0.09 0.10 0.10 0.09 0.07 0.06 0.06 0.06 0.06 0.05 0.05 0.04 0.03 0.02 0.03 0.05 0.04 0.03 0.04 0.04 0.03 0.03 0.02 0.02 0.02 0.02 0.02 0.02 0.01 0.02 0.02 0.03 0.03 0.03 0.04 0.06 0.07 0.16
0.15 0.17 0.17 0.15 0.10 0.08 0.06 0.06 0.07 0.07 0.06 0.05 0.05 0.06 0.06 0.06 0.04 0.04 0.03 0.03 0.03 0.05 0.04 0.03 0.04 0.05 0.05 0.04 0.03 0.03 0.03 0.03 0.02 0.03 0.02 0.02 0.03 0.03 0.04 0.04 0.04 0.06 0.08 0.21
0.07 0.10 0.13 0.12 0.09 0.09 0.07 0.05 0.04 0.05 0.05 0.05 0.05 0.05 0.06 0.06 0.04 0.03 0.04 0.03 0.03 0.05 0.04 0.04 0.04 0.06 0.06 0.06 0.06 0.04 0.03 0.03 0.03 0.04 0.03 0.04 0.04 0.04 0.04 0.05 0.05 0.06 0.08 0.13